[[{"header":{"parameterUnit":"m.s-1","parameterCategory":2,"la1":30.2992,"la2":30.254,"lo1":-89.0895,"lo2":-89.0443,"dy":0.0025,"dx":0.0025,"nx":19,"ny":19,"refTime":"2026-05-17T21:00:00:Z","depth":"0","parameterNumber":2,"parameterNumberName":"U-component_of_CURRENTS"},"data":[0,0,0,0.3773,0.3776,0.3915,0.3915,0.4094,0.4096,0,0,0,0,0,0,0,0,0,0,0,0.3699,0.37,0.3772,0.3777,0.3915,0.3915,0.4094,0.4096,0,0,0,0,0,0,0,0,0,0,0,0.3699,0.37,0.3702,0.3777,0.3915,0.3915,0.4093,0.3982,0,0,0,0,0,0,0,0,0,0,0.3844,0.3787,0.37,0.3702,0.3778,0.3915,0.3915,0.3976,0.3989,0.4041,0,0.4067,0,0.4112,0.4111,0.4111,0,0,0,0.3749,0.3776,0.3825,0.3702,0.378,0.3915,0.3844,0.3983,0.3997,0.4058,0.407,0.4078,0.4115,0.4112,0.4113,0.4402,0.4404,0,0,0.3741,0.3715,0.3814,0.3834,0.3825,0.384,0.3849,0.3991,0.4004,0.4071,0.4083,0.4118,0.4113,0.4115,0.4401,0.4403,0,0,0,0.3738,0.371,0.3754,0.3825,0.3866,0.3845,0.3855,0.3996,0.4015,0.4085,0.412,0.4115,0.4117,0.4399,0.4402,0.4423,0,0,0,0.3732,0.3711,0.375,0.3735,0.3863,0.3935,0.3857,0.4003,0.4022,0.4119,0.4115,0.4119,0.4397,0.44,0.4419,0.4433,0,0,0,0.3691,0.3707,0.3727,0.3734,0.3811,0.3934,0.3958,0.4007,0.4046,0.4111,0.412,0.4396,0.44,0.4415,0.4427,0.4633,0,0,0,0.3654,0.3714,0.3726,0.3807,0.381,0.3949,0.3958,0.4067,0.4129,0.4116,0.4398,0.4401,0.4414,0.4424,0.4627,0.4591,0.4617,0,0,0.3714,0.372,0.377,0.3786,0.3904,0.3927,0.4076,0.4158,0.4203,0.4342,0.4349,0.442,0.4427,0.4632,0.4801,0.4821,0,0,0,0.378,0.3796,0.3844,0.3905,0.4006,0.4097,0.418,0.4247,0.4377,0.4265,0.4489,0.4494,0.4622,0.4589,0.4606,0.4495,0.4418,0.4418,0.4417,0.374,0.3807,0.3883,0.3972,0.4069,0.4229,0.433,0.4441,0.446,0.4541,0.4562,0.4798,0.476,0.4773,0.4659,0.4618,0.4618,0.4619,0.4619,0.376,0.3808,0.3881,0.3978,0.4102,0.4227,0.4469,0.4531,0.4751,0.4673,0.4799,0.4673,0.4793,0.4664,0.4621,0.4621,0.462,0.462,0.462,0.3692,0.3747,0.3781,0.3917,0.4059,0.4253,0.4505,0.4669,0.4799,0.4896,0.4983,0.498,0.4833,0.5006,0.5007,0.5008,0.5008,0.5009,0.501,0.3639,0.3692,0.3767,0.389,0.3988,0.4213,0.4555,0.4745,0.4992,0.5045,0.5046,0.491,0.4919,0.4863,0.5025,0.5022,0.502,0.5019,0.5018,0.3702,0.3693,0.3813,0.3891,0.4078,0.4208,0.455,0.49,0.5137,0.5234,0.5097,0.5169,0.5189,0.5173,0.5128,0.535,0.535,0.535,0.535,0.3752,0.3749,0.3909,0.3996,0.4115,0.4233,0.4451,0.4754,0.5044,0.5112,0.5172,0.4999,0.4991,0.4989,0.4978,0.4925,0.5091,0.509,0.509,0.3873,0.3901,0.4009,0.402,0.4103,0.4203,0.4278,0.4382,0.4775,0.5069,0.5036,0.5047,0.4775,0.4771,0.4744,0.4737,0.4642,0,0]},{"header":{"parameterUnit":"m.s-1","parameterCategory":2,"la1":30.2992,"la2":30.254,"lo1":-89.0895,"lo2":-89.0443,"dy":0.0025,"dx":0.0025,"nx":19,"ny":19,"refTime":"2026-05-17T21:00:00:Z","depth":"0","parameterNumber":3,"parameterNumberName":"V-component_of_CURRENTS"},"data":[0,0,0,0.0233,0.0233,0.0203,0.0203,0.0131,0.0131,0,0,0,0,0,0,0,0,0,0,0,0.0244,0.0244,0.0233,0.0233,0.0203,0.0203,0.0131,0.0131,0,0,0,0,0,0,0,0,0,0,0,0.0244,0.0244,0.0244,0.0233,0.0203,0.0203,0.0132,0.0161,0,0,0,0,0,0,0,0,0,0,0.0193,0.0214,0.0244,0.0244,0.0233,0.0203,0.0203,0.0162,0.0159,0.0138,0,0.0139,0,0.0136,0.0126,0.0126,0,0,0,0.0225,0.0217,0.0206,0.0244,0.0232,0.0203,0.0214,0.016,0.0156,0.0133,0.0138,0.0136,0.0134,0.0125,0.0125,0.0155,0.0156,0,0,0.0227,0.0237,0.0209,0.0204,0.0231,0.0215,0.0213,0.0158,0.0157,0.0138,0.0134,0.0133,0.0125,0.0124,0.0155,0.0156,0,0,0,0.0237,0.0238,0.023,0.0207,0.0205,0.0215,0.0212,0.016,0.0157,0.0133,0.0132,0.0124,0.0124,0.0154,0.0155,0.0329,0,0,0,0.0237,0.0245,0.0231,0.0236,0.0207,0.0188,0.0215,0.0161,0.0154,0.0133,0.0124,0.0123,0.0153,0.0154,0.0322,0.0446,0,0,0,0.0244,0.0245,0.0244,0.0237,0.0228,0.0189,0.0182,0.0159,0.0154,0.0126,0.0123,0.0152,0.0154,0.0316,0.0434,0.0615,0,0,0,0.0252,0.0297,0.0244,0.0305,0.0228,0.0279,0.0183,0.0198,0.0186,0.0124,0.0153,0.0155,0.0314,0.0426,0.0605,0.0766,0.0821,0,0,0.0325,0.0306,0.0349,0.0302,0.0393,0.0282,0.0372,0.0298,0.0207,0.0164,0.0165,0.0324,0.0433,0.0613,0.0885,0.0938,0,0,0,0.0384,0.0418,0.0437,0.0471,0.047,0.0497,0.0406,0.0376,0.0338,0.0208,0.0317,0.0382,0.049,0.0566,0.0607,0.033,0.0164,0.0164,0.0164,0.0496,0.0514,0.061,0.0631,0.0652,0.0639,0.0662,0.0597,0.046,0.0467,0.0516,0.0767,0.0846,0.088,0.059,0.0481,0.0482,0.0482,0.0483,0.0655,0.0734,0.0748,0.0842,0.0854,0.0909,0.09,0.0834,0.0862,0.0678,0.0774,0.0736,0.0937,0.061,0.0494,0.0492,0.049,0.0489,0.0489,0.0743,0.0797,0.0834,0.098,0.1105,0.1119,0.1343,0.1241,0.1081,0.114,0.1225,0.1223,0.0948,0.1181,0.1183,0.1184,0.1185,0.1186,0.1187,0.0836,0.0888,0.1038,0.1159,0.1293,0.1498,0.1613,0.168,0.1637,0.1479,0.1479,0.1013,0.0981,0.0968,0.1208,0.1204,0.1202,0.12,0.1198,0.1029,0.1033,0.1277,0.1419,0.1738,0.2046,0.2135,0.2293,0.2266,0.2265,0.1535,0.1664,0.1646,0.161,0.1611,0.2005,0.2005,0.2005,0.2005,0.1178,0.1187,0.1551,0.1814,0.212,0.2325,0.277,0.2797,0.2302,0.1957,0.1704,0.1495,0.1475,0.1428,0.1396,0.1384,0.1711,0.171,0.1709,0.1383,0.1463,0.1752,0.1952,0.2284,0.2642,0.3048,0.3116,0.2258,0.1655,0.129,0.1303,0.0936,0.0926,0.0792,0.077,0.0727,0,0]}],[{"header":{"parameterUnit":"m.s-1","parameterCategory":2,"la1":30.2992,"la2":30.254,"lo1":-89.0895,"lo2":-89.0443,"dy":0.0025,"dx":0.0025,"nx":19,"ny":19,"refTime":"2026-05-17T21:00:00:Z","depth":"2","parameterNumber":2,"parameterNumberName":"U-component_of_CURRENTS"},"data":[0,0,0,0.3578,0.3582,0.3725,0.3725,0.3904,0.3906,0,0,0,0,0,0,0,0,0,0,0,0.3503,0.3504,0.3578,0.3582,0.3725,0.3725,0.3904,0.3906,0,0,0,0,0,0,0,0,0,0,0,0.3503,0.3504,0.3505,0.3583,0.3725,0.3725,0.3904,0.3792,0,0,0,0,0,0,0,0,0,0,0.3651,0.3601,0.3504,0.3505,0.3584,0.3725,0.3725,0.3786,0.3799,0.3846,0,0.3868,0,0.3915,0.392,0.3921,0,0,0,0.356,0.359,0.3628,0.3505,0.3586,0.3725,0.3654,0.3793,0.3807,0.3863,0.3871,0.3879,0.3918,0.3922,0.3923,0.4255,0.4257,0,0,0.3553,0.3533,0.3618,0.3637,0.3625,0.365,0.3659,0.3801,0.3818,0.3872,0.3883,0.3921,0.3923,0.3925,0.4253,0.4256,0,0,0,0.3545,0.3527,0.3561,0.3628,0.3668,0.3655,0.3665,0.3811,0.3822,0.3886,0.3923,0.3924,0.3927,0.4251,0.4254,0.4219,0,0,0,0.3539,0.3525,0.3557,0.3547,0.3665,0.3747,0.3671,0.3811,0.383,0.3922,0.3924,0.3929,0.4249,0.4253,0.4214,0.425,0,0,0,0.3496,0.3521,0.3536,0.3546,0.3621,0.3746,0.3764,0.3815,0.3854,0.3921,0.3929,0.4247,0.4252,0.4211,0.4243,0.4391,0,0,0,0.3471,0.3519,0.3536,0.3603,0.3619,0.3744,0.3763,0.3876,0.3939,0.3925,0.4249,0.4254,0.421,0.424,0.4386,0.4253,0.4268,0,0,0.3519,0.3524,0.3563,0.3583,0.3689,0.3723,0.3863,0.3957,0.4036,0.4192,0.42,0.4216,0.4243,0.439,0.454,0.4545,0,0,0,0.357,0.3586,0.3628,0.3687,0.3776,0.3878,0.3965,0.4031,0.4192,0.4104,0.4328,0.435,0.4441,0.4353,0.436,0.4277,0.4277,0.4276,0.4276,0.3543,0.3597,0.3665,0.3746,0.3839,0.3999,0.4104,0.4232,0.4255,0.4355,0.44,0.4604,0.451,0.4514,0.4468,0.4467,0.4467,0.4467,0.4467,0.3554,0.359,0.3669,0.3759,0.3886,0.4012,0.4243,0.4308,0.4534,0.4491,0.458,0.4419,0.4518,0.4467,0.4467,0.4467,0.4467,0.4467,0.4467,0.3487,0.3533,0.3579,0.3716,0.3866,0.4055,0.4287,0.445,0.4575,0.4666,0.4671,0.4668,0.4581,0.4735,0.4736,0.4737,0.4737,0.4738,0.4738,0.3422,0.3484,0.3553,0.3701,0.3803,0.4011,0.4339,0.4502,0.4678,0.471,0.4709,0.4698,0.4689,0.4606,0.4751,0.4749,0.4747,0.4746,0.4745,0.3422,0.3447,0.3566,0.3652,0.3832,0.3897,0.4257,0.4515,0.4722,0.4767,0.4754,0.475,0.4779,0.4771,0.4696,0.4857,0.4857,0.4857,0.4857,0.3416,0.3437,0.3586,0.3685,0.377,0.3859,0.3928,0.4084,0.4379,0.444,0.4457,0.4275,0.4281,0.4274,0.4278,0.4188,0.4218,0.4216,0.4215,0.3449,0.3524,0.3596,0.367,0.372,0.3714,0.3587,0.3486,0.376,0.4181,0.4255,0.4832,0.4604,0.4598,0.4617,0.4612,0.448,0,0]},{"header":{"parameterUnit":"m.s-1","parameterCategory":2,"la1":30.2992,"la2":30.254,"lo1":-89.0895,"lo2":-89.0443,"dy":0.0025,"dx":0.0025,"nx":19,"ny":19,"refTime":"2026-05-17T21:00:00:Z","depth":"2","parameterNumber":3,"parameterNumberName":"V-component_of_CURRENTS"},"data":[0,0,0,0.0162,0.0162,0.0133,0.0133,0.0067,0.0066,0,0,0,0,0,0,0,0,0,0,0,0.0169,0.0169,0.0162,0.0162,0.0133,0.0133,0.0067,0.0066,0,0,0,0,0,0,0,0,0,0,0,0.0169,0.0169,0.0169,0.0162,0.0133,0.0133,0.0067,0.0094,0,0,0,0,0,0,0,0,0,0,0.0124,0.0144,0.0169,0.0169,0.0162,0.0133,0.0133,0.0095,0.0092,0.0074,0,0.0074,0,0.0073,0.0062,0.0062,0,0,0,0.0152,0.0147,0.0135,0.0169,0.0162,0.0134,0.0144,0.0094,0.009,0.007,0.0073,0.0071,0.0072,0.0062,0.0061,0.0099,0.0099,0,0,0.0154,0.0164,0.0138,0.0133,0.0159,0.0145,0.0143,0.0092,0.0091,0.0073,0.007,0.0071,0.0061,0.0061,0.0098,0.0099,0,0,0,0.0165,0.0166,0.0156,0.0136,0.0135,0.0144,0.0142,0.0094,0.009,0.0069,0.007,0.0061,0.006,0.0097,0.0098,0.0257,0,0,0,0.0165,0.0173,0.0157,0.0163,0.0137,0.012,0.0145,0.0093,0.0087,0.0071,0.0061,0.0059,0.0096,0.0097,0.025,0.0363,0,0,0,0.0169,0.0173,0.0171,0.0163,0.0155,0.0121,0.0114,0.0092,0.0088,0.0062,0.0059,0.0095,0.0097,0.0245,0.0351,0.0459,0,0,0,0.0179,0.022,0.0171,0.0229,0.0156,0.0205,0.0114,0.0131,0.012,0.0061,0.0096,0.0098,0.0243,0.0344,0.0451,0.0493,0.0531,0,0,0.0247,0.0228,0.0269,0.0226,0.0314,0.0208,0.0293,0.0225,0.0143,0.0106,0.0107,0.0252,0.035,0.0457,0.0614,0.0649,0,0,0,0.0303,0.0335,0.0354,0.0388,0.0387,0.041,0.0329,0.0296,0.0263,0.0146,0.0251,0.0308,0.037,0.0379,0.0407,0.0108,0.0108,0.0108,0.0107,0.041,0.0428,0.0519,0.0539,0.056,0.0545,0.0559,0.0495,0.0377,0.0385,0.0434,0.0626,0.0636,0.0657,0.0406,0.0407,0.0407,0.0408,0.0408,0.0557,0.0624,0.0646,0.0735,0.0744,0.0795,0.0774,0.0713,0.0721,0.058,0.0631,0.0542,0.0698,0.0421,0.0418,0.0417,0.0415,0.0414,0.0414,0.0637,0.0677,0.0725,0.086,0.097,0.0981,0.1151,0.1063,0.0913,0.0955,0.093,0.0927,0.0746,0.0964,0.0965,0.0966,0.0967,0.0968,0.0969,0.0698,0.0756,0.0877,0.1011,0.1127,0.1284,0.1377,0.1406,0.1304,0.1147,0.1146,0.0814,0.0796,0.0778,0.0984,0.0981,0.0979,0.0978,0.0977,0.0806,0.0834,0.1028,0.1156,0.1439,0.1664,0.1744,0.1794,0.1741,0.1684,0.1243,0.1231,0.1192,0.1167,0.1158,0.145,0.145,0.145,0.145,0.0874,0.0904,0.1173,0.1412,0.167,0.1853,0.2101,0.2031,0.1771,0.1528,0.1524,0.1385,0.1365,0.1325,0.1296,0.1284,0.161,0.161,0.161,0.096,0.1041,0.1238,0.1477,0.1783,0.2036,0.2229,0.2158,0.1747,0.1612,0.1508,0.1469,0.1246,0.1222,0.1134,0.1098,0.1067,0,0]}],[{"header":{"parameterUnit":"m.s-1","parameterCategory":2,"la1":30.2992,"la2":30.254,"lo1":-89.0895,"lo2":-89.0443,"dy":0.0025,"dx":0.0025,"nx":19,"ny":19,"refTime":"2026-05-17T21:00:00:Z","depth":"4","parameterNumber":2,"parameterNumberName":"U-component_of_CURRENTS"},"data":[0,0,0,0.234,0.2344,0.258,0.2581,0.2794,0.2795,0,0,0,0,0,0,0,0,0,0,0,0.2277,0.2279,0.234,0.2345,0.258,0.2581,0.2794,0.2795,0,0,0,0,0,0,0,0,0,0,0,0.2276,0.2278,0.228,0.2345,0.2579,0.2581,0.2793,0.2643,0,0,0,0,0,0,0,0,0,0,0.2428,0.2375,0.2278,0.228,0.2346,0.2579,0.2581,0.2637,0.2653,0.2655,0,0.2699,0,0.2732,0.2806,0.2806,0,0,0,0.2368,0.2363,0.2418,0.2281,0.2348,0.2579,0.248,0.2647,0.2664,0.2674,0.2702,0.271,0.2736,0.2806,0.2807,0.2985,0.2986,0,0,0.2355,0.2327,0.2406,0.2429,0.2418,0.2473,0.2487,0.2658,0.2681,0.2703,0.2716,0.2739,0.2807,0.2809,0.2984,0.2985,0,0,0,0.2302,0.2317,0.2372,0.242,0.2459,0.2479,0.2496,0.2675,0.2692,0.2718,0.2742,0.2808,0.281,0.2984,0.2985,0.3051,0,0,0,0.2295,0.2285,0.2366,0.2352,0.2456,0.2581,0.2508,0.2681,0.2701,0.2741,0.2808,0.2812,0.2983,0.2984,0.3047,0.3085,0,0,0,0.2265,0.2281,0.231,0.235,0.2439,0.2579,0.2608,0.2687,0.2713,0.2806,0.2812,0.2982,0.2984,0.3044,0.3079,0.3163,0,0,0,0.2226,0.2246,0.231,0.2357,0.2436,0.2568,0.2608,0.2728,0.2811,0.2809,0.2983,0.2985,0.3043,0.3076,0.3158,0.2751,0,0,0,0.2212,0.2244,0.2272,0.2333,0.2443,0.2536,0.2672,0.2798,0.2839,0.2922,0.2928,0.3048,0.3079,0.3162,0.287,0,0,0,0,0.2242,0.2268,0.2313,0.2406,0.2514,0.2658,0.2776,0.2845,0.2987,0.2893,0.307,0.3087,0.3137,0.2888,0.2994,0.2994,0.2994,0.2994,0.2993,0.2193,0.2267,0.2338,0.2456,0.2563,0.2754,0.2876,0.2994,0.3021,0.3103,0.3157,0.3286,0.3024,0.3169,0.3169,0.3169,0.317,0.317,0.317,0.2185,0.2217,0.2365,0.2461,0.2634,0.278,0.2997,0.3076,0.3267,0.3244,0.3289,0.2992,0.3177,0.3176,0.3175,0.3174,0.3173,0.3173,0.3173,0.2143,0.2157,0.2264,0.2427,0.2619,0.2823,0.2998,0.3186,0.333,0.3412,0.3176,0.3353,0.3331,0.3457,0.3458,0.3458,0.3459,0.3459,0.3459,0.2029,0.2126,0.2195,0.2389,0.2509,0.2717,0.3032,0.315,0.3345,0.3226,0.3461,0.3384,0.3374,0.3349,0.3468,0.3466,0.3465,0.3464,0.3464,0.1908,0.1982,0.205,0.2156,0.239,0.2512,0.2855,0.2998,0.311,0.3108,0.3119,0.3134,0.3081,0.308,0.3041,0.3074,0.3069,0.3064,0,0.1805,0.1851,0.1899,0.1989,0.2103,0.2362,0.2421,0.2615,0.2806,0.2701,0.3111,0.3116,0.3125,0.3056,0.3048,0.2996,0,0,0,0.1717,0.1746,0.1723,0.1833,0.1941,0.2135,0.2409,0.2387,0.2781,0.2774,0.2944,0.2976,0.3258,0.3493,0.3449,0.3437,0.3395,0,0]},{"header":{"parameterUnit":"m.s-1","parameterCategory":2,"la1":30.2992,"la2":30.254,"lo1":-89.0895,"lo2":-89.0443,"dy":0.0025,"dx":0.0025,"nx":19,"ny":19,"refTime":"2026-05-17T21:00:00:Z","depth":"4","parameterNumber":3,"parameterNumberName":"V-component_of_CURRENTS"},"data":[0,0,0,0.011,0.011,0.0094,0.0094,0.0054,0.0054,0,0,0,0,0,0,0,0,0,0,0,0.0114,0.0114,0.011,0.011,0.0094,0.0094,0.0054,0.0054,0,0,0,0,0,0,0,0,0,0,0,0.0114,0.0114,0.0114,0.011,0.0094,0.0094,0.0054,0.007,0,0,0,0,0,0,0,0,0,0,0.0087,0.0099,0.0114,0.0114,0.011,0.0094,0.0094,0.007,0.0069,0.0059,0,0.006,0,0.006,0.0052,0.0051,0,0,0,0.0103,0.01,0.0095,0.0114,0.011,0.0094,0.0099,0.007,0.0067,0.0056,0.006,0.0058,0.0059,0.0051,0.0051,0.0087,0.0088,0,0,0.0104,0.011,0.0096,0.0094,0.011,0.01,0.0099,0.0068,0.0068,0.0059,0.0057,0.0058,0.0051,0.0051,0.0086,0.0087,0,0,0,0.0111,0.0111,0.0106,0.0095,0.0095,0.0099,0.0098,0.007,0.0068,0.0057,0.0058,0.0051,0.005,0.0086,0.0087,0.0197,0,0,0,0.0112,0.0116,0.0107,0.011,0.0096,0.0086,0.01,0.007,0.0067,0.0058,0.0051,0.005,0.0085,0.0086,0.0193,0.025,0,0,0,0.0114,0.0116,0.0115,0.0111,0.0107,0.0086,0.0083,0.0069,0.0067,0.0051,0.005,0.0084,0.0086,0.0189,0.0242,0.0246,0,0,0,0.0119,0.0148,0.0116,0.016,0.0107,0.0153,0.0083,0.01,0.0096,0.0051,0.0085,0.0086,0.0187,0.0238,0.0242,0.0261,0,0,0,0.0165,0.0153,0.0186,0.0157,0.023,0.0154,0.022,0.0171,0.0113,0.009,0.0091,0.0194,0.0242,0.0245,0.0353,0,0,0,0,0.0209,0.0233,0.025,0.0281,0.0289,0.0302,0.0252,0.0224,0.0199,0.0118,0.0195,0.0222,0.022,0.022,0.0094,0.0094,0.0094,0.0094,0.0093,0.028,0.03,0.0367,0.0391,0.0414,0.0404,0.0401,0.035,0.0287,0.0289,0.0313,0.0395,0.0402,0.0306,0.0307,0.0308,0.0308,0.0308,0.0309,0.0377,0.0413,0.045,0.0518,0.053,0.0573,0.054,0.0496,0.047,0.0411,0.0402,0.034,0.032,0.0317,0.0316,0.0315,0.0314,0.0313,0.0312,0.042,0.0435,0.0489,0.0582,0.0665,0.0677,0.0729,0.0675,0.0577,0.0585,0.0532,0.0455,0.0442,0.0566,0.0566,0.0566,0.0567,0.0567,0.0567,0.042,0.0475,0.0541,0.0648,0.0726,0.0811,0.0836,0.081,0.0719,0.0665,0.061,0.048,0.0472,0.0455,0.0572,0.0571,0.057,0.057,0.057,0.043,0.046,0.0569,0.0651,0.0835,0.0913,0.0944,0.0895,0.0858,0.0788,0.0678,0.0671,0.0621,0.0608,0.0594,0.0756,0.0757,0.0758,0,0.042,0.0445,0.0593,0.0735,0.0884,0.0973,0.0993,0.0967,0.0839,0.0827,0.081,0.0687,0.0681,0.0623,0.0613,0.0598,0,0,0,0.0413,0.0473,0.0574,0.0739,0.0921,0.0977,0.1003,0.0975,0.0873,0.0849,0.0775,0.077,0.0687,0.0586,0.0491,0.0481,0.0448,0,0]}]]